KINEIS-3B (61224 NORAD) Tracking and Keplerian Element Data

This shows tracking and keplerian element data for the satellite.

Feedback or suggestion? Click here.




ElementValue
Catalog61224
NameKINEIS-3B
Epoch Orbit322
Epoch Day286.86070888
Epoch Year2024
RAAN13.2192
Inclination98.017
Eccentricity0.0002274
Argument of Perigee198.7817
Mean Anonmoly161.331
Mean Motion14.77922647
Decay Rate0.00011308
L11 61224U 24172E 24286.86070888 .00011308 00000+0 15751-2 0 9991
L22 61224 98.0170 13.2192 0002274 198.7817 161.3310 14.77922647 3227



Live tracking and technical data element details for KINEIS-3B (NORAD 61224). KINEIS-3B can be tracked NOW for your location showing map with azimuth and elevation plus other details from your city location.







IsCatalogInMostPopularTable: catalog: 61224, numindb: 24
Update: records affected: 1



GetName: 61224 KINEIS-3B

Hit Count: updated at: Fri, 06 Dec 2024 10:10:55 GMT